Brindisi/Casale, Italy

2:28 PM CET on February 22, 2017 (GMT +0100)
Casale Mil

Weather History for LIBR - May, 2013

Change the Weather History Date:

Saturday, May 18, 2013

  Actual Average Record
Temperature  
Mean Temperature 67 °F -  
Max Temperature 73 °F 76 °F 82 °F (2001)
Min Temperature 61 °F 61 °F 50 °F (2014)
Cooling Degree Days 2    
Growing Degree Days 17 (Base 50)    
Moisture  
Dew Point 64 °F    
Average Humidity 87    
Maximum Humidity 94    
Minimum Humidity 78    
Precipitation  
Precipitation 0.00 in 0.03 in - ()
Sea Level Pressure  
Sea Level Pressure 30.01 in    
Wind  
Wind Speed 4 mph ()    
Max Wind Speed 9 mph    
Max Gust Speed -    
Visibility 6.0 miles    
Events      
Averages and records for this station are not official NWS values.
T = Trace of Precipitation, MM = Missing Value Source: Averaged Metar Reports

Daily Weather History Graph

Daily Weather History Graph

Search for Another Location

Airport or City:

Trip Planner

Search our weather history database for the weather conditions in past years. The results will help you decide how hot, cold, wet, or windy it might be!

Date:

Astronomy

May. 18, 2013 Rise Set
Actual Time 5:28 AM CEST 8:01 PM CEST
Civil Twilight 4:57 AM CEST 8:32 PM CEST
Nautical Twilight 4:18 AM CEST 9:11 PM CEST
Astronomical Twilight 3:34 AM CEST 9:55 PM CEST
Moon 12:44 PM CEST (5/18) 1:13 AM CEST (5/18)
Length of Visible Light 15h 35m
Length of Day
14h 32m
First Quarter, 52% of the Moon is Illuminated
May 18
First Quarter
May 25
Full
May 31
Last Quarter
Jun 8
New
Jun 16
First Quarter

Hourly Weather History & Observations

Time (CEST) Temp. Dew Point Humidity Pressure Visibility Wind Dir Wind Speed Gust Speed Precip Events Conditions
12:15 AM 66.2 °F 62.6 °F 88% 29.89 in - SW 9.2 mph - N/A   Clear
12:45 AM 66.2 °F 62.6 °F 88% 29.92 in - SW 2.3 mph - N/A   Clear
1:15 AM 64.4 °F 62.6 °F 94% 29.92 in - South 1.2 mph - N/A   Clear
1:45 AM 64.4 °F 62.6 °F 94% 29.92 in - WNW 1.2 mph - N/A   Clear
2:00 AM 65 °F 62 °F 87% 29.94 in 6 mi WNW 1.2 mph - -  
5:15 AM 60.8 °F 57.2 °F 88% 29.95 in - North 3.5 mph - N/A   Clear
5:45 AM 64.4 °F 60.8 °F 88% 29.95 in - North 3.5 mph - N/A   Clear
6:15 AM 64.4 °F 59.0 °F 83% 29.98 in - North 3.5 mph - N/A   Clear
6:45 AM 64.4 °F 59.0 °F 83% 29.98 in - North 2.3 mph - N/A   Clear
7:15 AM 64.4 °F 60.8 °F 88% 30.01 in - NNE 3.5 mph - N/A   Clear
7:45 AM 66.2 °F 60.8 °F 83% 30.01 in - North 3.5 mph - N/A   Clear
8:00 AM 65 °F 61 °F 83% 30.01 in 6 mi North 3.5 mph - -  
8:15 AM 66.2 °F 62.6 °F 88% 30.04 in - NNE 4.6 mph - N/A   Clear
8:45 AM 66.2 °F 62.6 °F 88% 30.04 in - NNE 4.6 mph - N/A   Clear
9:15 AM 66.2 °F 62.6 °F 88% 30.04 in - NE 4.6 mph - N/A   Clear
9:45 AM 68.0 °F 62.6 °F 83% 30.04 in - NE 4.6 mph - N/A   Clear
10:15 AM 68.0 °F 62.6 °F 83% 30.04 in - ENE 4.6 mph - N/A   Clear
10:45 AM 68.0 °F 64.4 °F 88% 30.04 in - NE 3.5 mph - N/A   Clear
11:15 AM 68.0 °F 62.6 °F 83% 30.06 in - ENE 4.6 mph - N/A   Clear
11:45 AM 68.0 °F 64.4 °F 88% 30.06 in - NE 4.6 mph - N/A   Clear
12:15 PM 68.0 °F 64.4 °F 88% 30.06 in - NE 2.3 mph - N/A   Clear
12:45 PM 69.8 °F 64.4 °F 83% 30.06 in - NE 4.6 mph - N/A   Clear
1:15 PM 69.8 °F 66.2 °F 88% 30.06 in - NE 4.6 mph - N/A   Clear
1:45 PM 69.8 °F 66.2 °F 88% 30.06 in - ENE 4.6 mph - N/A   Clear
2:00 PM 70 °F 65 °F 81% 30.06 in 6 mi ENE 4.6 mph - -   Clear
2:15 PM 71.6 °F 66.2 °F 83% 30.06 in - East 8.1 mph - N/A   Clear
2:45 PM 71.6 °F 66.2 °F 83% 30.06 in - East 8.1 mph - N/A   Clear
3:15 PM 71.6 °F 66.2 °F 83% 30.04 in - East 6.9 mph - N/A   Clear
3:45 PM 71.6 °F 66.2 °F 83% 30.04 in - East 8.1 mph - N/A   Clear
4:15 PM 73.4 °F 66.2 °F 78% 30.04 in - East 6.9 mph - N/A   Clear
4:45 PM 71.6 °F 68.0 °F 88% 30.04 in - ENE 9.2 mph - N/A   Clear
5:15 PM 71.6 °F 68.0 °F 88% 30.04 in - ENE 8.1 mph - N/A   Clear
5:45 PM 71.6 °F 68.0 °F 88% 30.01 in - East 9.2 mph - N/A   Clear
6:15 PM 71.6 °F 68.0 °F 88% 30.01 in - East 8.1 mph - N/A   Clear
6:45 PM 69.8 °F 68.0 °F 94% 30.01 in - East 8.1 mph - N/A   Clear
7:15 PM 69.8 °F 66.2 °F 88% 30.01 in - East 8.1 mph - N/A   Clear
7:45 PM 69.8 °F 66.2 °F 88% 30.01 in - ESE 4.6 mph - N/A   Clear
8:00 PM 69 °F 66 °F 89% 30.01 in 6 mi ESE 4.6 mph - -  
8:15 PM 69.8 °F 66.2 °F 88% 30.01 in - East 4.6 mph - N/A   Clear
8:45 PM 68.0 °F 64.4 °F 88% 30.01 in - ESE 5.8 mph - N/A   Clear
9:15 PM 68.0 °F 64.4 °F 88% 30.01 in - ESE 6.9 mph - N/A   Clear
9:45 PM 68.0 °F 64.4 °F 88% 30.01 in - East 6.9 mph - N/A   Clear
10:15 PM 66.2 °F 64.4 °F 94% 30.01 in - ESE 6.9 mph - N/A   Clear
10:45 PM 66.2 °F 64.4 °F 94% 30.01 in - SE 4.6 mph - N/A   Clear
11:15 PM 66.2 °F 64.4 °F 94% 29.98 in - SE 3.5 mph - N/A   Clear
11:45 PM 66.2 °F 64.4 °F 94% 29.98 in - ESE 3.5 mph - N/A   Clear